Georgetown, SC

9:21 AM EDT on July 26, 2017 (GMT -0400)
Georgetown County

Weather History for KGGE - April, 2014

Change the Weather History Date:

Thursday, April 17, 2014

  Actual Average Record
Temperature  
Mean Temperature 54 °F -  
Max Temperature 68 °F 75 °F 84 °F (2012)
Min Temperature 41 °F 51 °F 41 °F (2014)
Degree Days  
Heating Degree Days 10    
Growing Degree Days 4 (Base 50)    
Moisture  
Dew Point 43 °F    
Average Humidity 71    
Maximum Humidity 94    
Minimum Humidity 46    
Precipitation  
Precipitation 0.00 in - - ()
Sea Level Pressure  
Sea Level Pressure 30.41 in    
Wind  
Wind Speed 9 mph (NE)    
Max Wind Speed 14 mph    
Max Gust Speed 20 mph    
Visibility 10 miles    
Events      
Averages and records for this station are not official NWS values.
T = Trace of Precipitation, MM = Missing Value Source: NWS Daily Summary

Daily Weather History Graph

Daily Weather History Graph

Search for Another Location

Airport or City:

Trip Planner

Search our weather history database for the weather conditions in past years. The results will help you decide how hot, cold, wet, or windy it might be!

Date:

Astronomy

Apr. 17, 2014 Rise Set
Actual Time 6:44 AM EDT 7:49 PM EDT
Civil Twilight 6:19 AM EDT 8:15 PM EDT
Nautical Twilight 5:48 AM EDT 8:45 PM EDT
Astronomical Twilight 5:17 AM EDT 9:16 PM EDT
Moon 10:27 PM EDT (4/17) 8:20 AM EDT (4/17)
Length of Visible Light 13h 55m
Length of Day
13h 04m
Waning Gibbous, 94% of the Moon is Illuminated
Apr 17
Waning Gibbous
Apr 22
Last Quarter
Apr 29
New
May 6
First Quarter
May 14
Full

Hourly Weather History & Observations

Time (EDT) Temp. Windchill Dew Point Humidity Pressure Visibility Wind Dir Wind Speed Gust Speed Precip Events Conditions
12:15 AM 50.0 °F - 41.0 °F 71% 30.39 in 10.0 mi ENE 9.2 mph - N/A   Scattered Clouds
12:35 AM 50.0 °F - 41.0 °F 71% 30.38 in 10.0 mi NE 10.4 mph - N/A   Clear
12:55 AM 50.0 °F - 41.0 °F 71% 30.38 in 10.0 mi ENE 10.4 mph 16.1 mph N/A   Clear
1:15 AM 50.0 °F - 41.0 °F 71% 30.38 in 10.0 mi ENE 12.7 mph - N/A   Clear
1:35 AM 50.0 °F - 41.0 °F 71% 30.39 in 10.0 mi ENE 8.1 mph - N/A   Clear
1:55 AM 46.4 °F 42.9 °F 41.0 °F 81% 30.39 in 10.0 mi North 6.9 mph - N/A   Clear
2:15 AM 44.6 °F 41.4 °F 41.0 °F 87% 30.39 in 10.0 mi North 5.8 mph - N/A   Scattered Clouds
2:35 AM 44.6 °F 41.4 °F 41.0 °F 87% 30.39 in 10.0 mi North 5.8 mph - N/A   Clear
2:55 AM 44.6 °F 40.7 °F 41.0 °F 87% 30.40 in 10.0 mi NNE 6.9 mph - N/A   Scattered Clouds
3:15 AM 46.4 °F 42.4 °F 41.0 °F 81% 30.40 in 10.0 mi NNE 8.1 mph - N/A   Overcast
3:35 AM 44.6 °F 39.7 °F 41.0 °F 87% 30.39 in 10.0 mi NNE 9.2 mph - N/A   Mostly Cloudy
3:55 AM 44.6 °F 39.7 °F 37.4 °F 76% 30.40 in 10.0 mi NNE 9.2 mph - N/A   Scattered Clouds
4:15 AM 42.8 °F 38.0 °F 33.8 °F 70% 30.40 in 10.0 mi NNE 8.1 mph - N/A   Clear
4:35 AM 42.8 °F 37.5 °F 32.0 °F 66% 30.40 in 10.0 mi NNE 9.2 mph - N/A   Clear
4:55 AM 41.0 °F 34.7 °F 32.0 °F 70% 30.39 in 10.0 mi NNE 10.4 mph - N/A   Clear
5:15 AM 41.0 °F 33.9 °F 32.0 °F 70% 30.39 in 10.0 mi NE 12.7 mph - N/A   Scattered Clouds
5:35 AM 41.0 °F 34.7 °F 32.0 °F 70% 30.38 in 10.0 mi NE 10.4 mph 18.4 mph N/A   Scattered Clouds
5:55 AM 41.0 °F 34.7 °F 33.8 °F 76% 30.39 in 10.0 mi NNE 10.4 mph - N/A   Clear
6:15 AM 41.0 °F 33.5 °F 33.8 °F 76% 30.40 in 10.0 mi NE 13.8 mph - N/A   Scattered Clouds
6:35 AM 41.0 °F 35.2 °F 33.8 °F 76% 30.41 in 10.0 mi NNE 9.2 mph - N/A   Clear
6:55 AM 41.0 °F 35.2 °F 33.8 °F 76% 30.41 in 10.0 mi NNE 9.2 mph - N/A   Clear
7:15 AM 41.0 °F 35.2 °F 33.8 °F 76% 30.42 in 10.0 mi NNE 9.2 mph - N/A   Clear
7:35 AM 41.0 °F 34.7 °F 33.8 °F 76% 30.42 in 10.0 mi NNE 10.4 mph - N/A   Clear
7:55 AM 42.8 °F 37.5 °F 33.8 °F 70% 30.44 in 10.0 mi NNE 9.2 mph - N/A   Clear
8:15 AM 42.8 °F 37.0 °F 35.6 °F 76% 30.45 in 10.0 mi NNE 10.4 mph 16.1 mph N/A   Clear
8:35 AM 44.6 °F 39.2 °F 35.6 °F 71% 30.45 in 10.0 mi NNE 10.4 mph - N/A   Clear
8:55 AM 44.6 °F 40.2 °F 35.6 °F 71% 30.45 in 10.0 mi NE 8.1 mph - N/A   Mostly Cloudy
9:15 AM 46.4 °F 42.9 °F 37.4 °F 71% 30.46 in 10.0 mi NNE 6.9 mph - N/A   Overcast
9:35 AM 48.2 °F - 37.4 °F 66% 30.46 in 10.0 mi NE 6.9 mph - N/A   Overcast
9:55 AM 50.0 °F - 39.2 °F 66% 30.47 in 10.0 mi North 6.9 mph - N/A   Overcast
10:15 AM 50.0 °F - 41.0 °F 71% 30.47 in 10.0 mi NE 5.8 mph - N/A   Mostly Cloudy
10:35 AM 51.8 °F - 41.0 °F 67% 30.47 in 10.0 mi North 8.1 mph - N/A   Scattered Clouds
10:55 AM 51.8 °F - 41.0 °F 67% 30.47 in 10.0 mi NE 8.1 mph - N/A   Clear
11:15 AM 53.6 °F - 42.8 °F 67% 30.47 in 10.0 mi NNE 12.7 mph - N/A   Clear
11:35 AM 57.2 °F - 42.8 °F 59% 30.47 in 10.0 mi NNE 8.1 mph - N/A   Clear
11:55 AM 59.0 °F - 44.6 °F 59% 30.46 in 10.0 mi North 8.1 mph - N/A   Clear
12:15 PM 59.0 °F - 44.6 °F 59% 30.46 in 10.0 mi North 5.8 mph - N/A   Clear
12:35 PM 60.8 °F - 44.6 °F 55% 30.45 in 10.0 mi NE 9.2 mph - N/A   Clear
12:55 PM 62.6 °F - 46.4 °F 55% 30.45 in 10.0 mi NE 8.1 mph - N/A   Clear
1:15 PM 62.6 °F - 46.4 °F 55% 30.44 in 10.0 mi NNE 6.9 mph - N/A   Clear
1:35 PM 64.4 °F - 46.4 °F 52% 30.44 in 10.0 mi NE 11.5 mph - N/A   Clear
1:55 PM 64.4 °F - 46.4 °F 52% 30.44 in 10.0 mi ENE 9.2 mph 16.1 mph N/A   Clear
2:15 PM 66.2 °F - 46.4 °F 49% 30.43 in 10.0 mi ENE 11.5 mph 17.3 mph N/A   Clear
2:35 PM 66.2 °F - 44.6 °F 46% 30.43 in 10.0 mi ENE 11.5 mph - N/A   Clear
2:55 PM 66.2 °F - 46.4 °F 49% 30.43 in 10.0 mi NE 10.4 mph - N/A   Clear
3:15 PM 66.2 °F - 44.6 °F 46% 30.42 in 10.0 mi ENE 9.2 mph - N/A   Clear
3:35 PM 68.0 °F - 46.4 °F 46% 30.41 in 10.0 mi ENE 9.2 mph - N/A   Clear
3:55 PM 66.2 °F - 48.2 °F 52% 30.40 in 10.0 mi ENE 9.2 mph 16.1 mph N/A   Clear
4:15 PM 68.0 °F - 48.2 °F 49% 30.40 in 10.0 mi East 13.8 mph - N/A   Clear
4:35 PM 66.2 °F - 46.4 °F 49% 30.39 in 10.0 mi ENE 10.4 mph - N/A   Clear
5:15 PM 64.4 °F - 48.2 °F 56% 30.39 in 10.0 mi ENE 11.5 mph 17.3 mph N/A   Clear
5:35 PM 64.4 °F - 50.0 °F 59% 30.38 in 10.0 mi East 11.5 mph 18.4 mph N/A   Clear
5:55 PM 64.4 °F - 48.2 °F 56% 30.37 in 10.0 mi ENE 10.4 mph 19.6 mph N/A   Clear
6:15 PM 64.4 °F - 50.0 °F 59% 30.36 in 10.0 mi East 11.5 mph 18.4 mph N/A   Clear
6:35 PM 62.6 °F - 50.0 °F 63% 30.37 in 10.0 mi ENE 9.2 mph 17.3 mph N/A   Clear
6:55 PM 62.6 °F - 50.0 °F 63% 30.38 in 10.0 mi East 8.1 mph - N/A   Clear
7:15 PM 60.8 °F - 50.0 °F 68% 30.39 in 10.0 mi East 5.8 mph - N/A   Clear
7:35 PM 59.0 °F - 51.8 °F 77% 30.38 in 10.0 mi ENE 5.8 mph - N/A   Clear
8:15 PM 55.4 °F - 51.8 °F 88% 30.38 in 10.0 mi ENE 5.8 mph - N/A   Clear
8:35 PM 55.4 °F - 51.8 °F 88% 30.38 in 10.0 mi ENE 3.5 mph - N/A   Clear
8:55 PM 55.4 °F - 51.8 °F 88% 30.38 in 10.0 mi ENE 5.8 mph - N/A   Clear
9:15 PM 55.4 °F - 53.6 °F 94% 30.39 in 10.0 mi ENE 8.1 mph - N/A   Clear
9:35 PM 55.4 °F - 53.6 °F 94% 30.40 in 10.0 mi ENE 6.9 mph - N/A   Clear
9:55 PM 55.4 °F - 53.6 °F 94% 30.40 in 10.0 mi NE 6.9 mph - N/A   Clear
10:15 PM 55.4 °F - 53.6 °F 94% 30.39 in 10.0 mi ENE 8.1 mph - N/A   Clear
10:35 PM 55.4 °F - 53.6 °F 94% 30.39 in 10.0 mi ENE 8.1 mph - N/A   Clear
10:55 PM 57.2 °F - 53.6 °F 88% 30.39 in 10.0 mi ENE 8.1 mph - N/A   Clear
11:15 PM 55.4 °F - 53.6 °F 94% 30.38 in 10.0 mi ENE 9.2 mph - N/A   Clear
11:35 PM 55.4 °F - 53.6 °F 94% 30.38 in 10.0 mi ENE 8.1 mph - N/A   Clear
11:55 PM 57.2 °F - 53.6 °F 88% 30.37 in 10.0 mi ENE 8.1 mph - N/A   Clear